Time,TemperatureF,DewpointF,PressureIn,WindDirection,WindDirectionDegrees,WindSpeedMPH,WindSpeedGustMPH,Humidity,HourlyPrecipIn,Conditions,Clouds,dailyrainin,SoftwareType,DateUTC
2013-11-22 00:01:00,40.3,31.3,30.36,North,0,0.0,0.0,70,0.00,,,0.00,WUHU21623XXSP,2013-11-22 05:01:00,
2013-11-22 00:06:00,40.3,31.3,30.35,North,0,0.0,0.0,70,0.00,,,0.00,WUHU21623XXSP,2013-11-22 05:06:00,
2013-11-22 00:11:00,40.3,31.3,30.35,North,0,0.0,0.0,70,0.00,,,0.00,WUHU21623XXSP,2013-11-22 05:11:00,
2013-11-22 00:16:00,40.3,31.3,30.35,North,0,0.0,0.0,70,0.00,,,0.00,WUHU21623XXSP,2013-11-22 05:16:00,
2013-11-22 00:21:00,40.3,31.3,30.35,North,0,0.0,0.0,70,0.00,,,0.00,WUHU21623XXSP,2013-11-22 05:21:00,
2013-11-22 00:26:00,40.3,31.3,30.35,North,0,0.0,0.0,70,0.00,,,0.00,WUHU21623XXSP,2013-11-22 05:26:00,
2013-11-22 00:31:00,40.3,31.3,30.34,North,0,0.0,0.0,70,0.00,,,0.00,WUHU21623XXSP,2013-11-22 05:31:00,
2013-11-22 00:36:00,40.3,31.3,30.34,North,0,0.0,0.0,70,0.00,,,0.00,WUHU21623XXSP,2013-11-22 05:36:00,
2013-11-22 00:41:00,40.5,31.5,30.34,North,0,0.0,0.0,70,0.00,,,0.00,WUHU21623XXSP,2013-11-22 05:41:00,
2013-11-22 00:46:00,40.5,31.5,30.33,North,0,0.0,0.0,70,0.00,,,0.00,WUHU21623XXSP,2013-11-22 05:46:00,
2013-11-22 00:51:00,40.5,31.5,30.33,North,0,0.0,0.0,70,0.00,,,0.00,WUHU21623XXSP,2013-11-22 05:51:00,
2013-11-22 00:56:00,40.5,31.8,30.33,North,0,0.0,0.0,71,0.00,,,0.00,WUHU21623XXSP,2013-11-22 05:56:00,
2013-11-22 01:01:00,40.5,31.8,30.33,North,0,0.0,0.0,71,0.00,,,0.00,WUHU21623XXSP,2013-11-22 06:01:00,
2013-11-22 01:06:00,40.6,32.0,30.33,North,0,0.0,0.0,71,0.00,,,0.00,WUHU21623XXSP,2013-11-22 06:06:00,
2013-11-22 01:11:00,40.6,32.0,30.33,North,0,0.0,0.0,71,0.00,,,0.00,WUHU21623XXSP,2013-11-22 06:11:00,
2013-11-22 01:16:00,40.6,32.0,30.33,North,0,0.0,0.0,71,0.00,,,0.00,WUHU21623XXSP,2013-11-22 06:16:00,
2013-11-22 01:21:00,40.6,32.0,30.33,North,0,0.0,0.0,71,0.00,,,0.00,WUHU21623XXSP,2013-11-22 06:21:00,
2013-11-22 01:26:00,40.6,32.0,30.33,North,0,0.0,0.0,71,0.00,,,0.00,WUHU21623XXSP,2013-11-22 06:26:00,
2013-11-22 01:31:00,40.8,32.5,30.33,North,0,0.0,0.0,72,0.00,,,0.00,WUHU21623XXSP,2013-11-22 06:31:00,
2013-11-22 01:36:00,40.8,32.5,30.32,North,0,0.0,0.0,72,0.00,,,0.00,WUHU21623XXSP,2013-11-22 06:36:00,
2013-11-22 01:41:00,40.8,32.5,30.32,North,0,0.0,0.0,72,0.00,,,0.00,WUHU21623XXSP,2013-11-22 06:41:00,
2013-11-22 01:46:00,40.8,32.5,30.31,North,0,0.0,0.0,72,0.00,,,0.00,WUHU21623XXSP,2013-11-22 06:46:00,
2013-11-22 01:52:00,40.8,32.5,30.31,North,0,0.0,0.0,72,0.00,,,0.00,WUHU21623XXSP,2013-11-22 06:52:00,
2013-11-22 01:57:00,40.8,32.5,30.32,North,0,0.0,0.0,72,0.00,,,0.00,WUHU21623XXSP,2013-11-22 06:57:00,
2013-11-22 02:01:00,40.8,32.5,30.31,North,0,0.0,0.0,72,0.00,,,0.00,WUHU21623XXSP,2013-11-22 07:01:00,
2013-11-22 02:06:00,40.8,32.5,30.31,North,0,0.0,0.0,72,0.00,,,0.00,WUHU21623XXSP,2013-11-22 07:06:00,
2013-11-22 02:11:00,40.8,32.5,30.31,North,0,0.0,0.0,72,0.00,,,0.00,WUHU21623XXSP,2013-11-22 07:11:00,
2013-11-22 02:16:00,41.0,33.0,30.30,North,0,0.0,0.0,73,0.00,,,0.00,WUHU21623XXSP,2013-11-22 07:16:00,
2013-11-22 02:21:00,41.0,33.0,30.30,North,0,0.0,0.0,73,0.00,,,0.00,WUHU21623XXSP,2013-11-22 07:21:00,
2013-11-22 02:26:00,41.2,33.2,30.30,North,0,0.0,0.0,73,0.00,,,0.00,WUHU21623XXSP,2013-11-22 07:26:00,
2013-11-22 02:32:00,41.2,33.2,30.30,North,0,0.0,0.0,73,0.00,,,0.00,WUHU21623XXSP,2013-11-22 07:32:00,
2013-11-22 02:37:00,41.2,33.2,30.30,North,0,0.0,0.0,73,0.00,,,0.00,WUHU21623XXSP,2013-11-22 07:37:00,
2013-11-22 02:42:00,41.2,33.2,30.30,North,0,0.0,0.0,73,0.00,,,0.00,WUHU21623XXSP,2013-11-22 07:42:00,
2013-11-22 02:47:00,41.2,33.2,30.30,North,0,0.0,0.0,73,0.00,,,0.00,WUHU21623XXSP,2013-11-22 07:47:00,
2013-11-22 02:52:00,41.4,33.3,30.30,North,0,0.0,0.0,73,0.00,,,0.00,WUHU21623XXSP,2013-11-22 07:52:00,
2013-11-22 02:57:00,41.4,33.3,30.30,North,0,0.0,0.0,73,0.00,,,0.00,WUHU21623XXSP,2013-11-22 07:57:00,
2013-11-22 03:02:00,41.4,33.3,30.29,North,0,0.0,0.0,73,0.00,,,0.00,WUHU21623XXSP,2013-11-22 08:02:00,
2013-11-22 03:07:00,41.4,33.3,30.30,NNW,337,0.0,0.0,73,0.00,,,0.00,WUHU21623XXSP,2013-11-22 08:07:00,
2013-11-22 03:12:00,41.4,33.3,30.29,NNW,337,0.0,0.0,73,0.00,,,0.00,WUHU21623XXSP,2013-11-22 08:12:00,
2013-11-22 03:17:00,41.5,33.3,30.29,NNW,337,0.0,0.0,73,0.00,,,0.00,WUHU21623XXSP,2013-11-22 08:17:00,
2013-11-22 03:22:00,41.4,33.3,30.29,NNW,337,0.0,0.0,73,0.00,,,0.00,WUHU21623XXSP,2013-11-22 08:22:00,
2013-11-22 03:27:00,41.5,33.5,30.28,NE,45,0.0,0.0,73,0.00,,,0.00,WUHU21623XXSP,2013-11-22 08:27:00,
2013-11-22 03:32:00,41.5,33.5,30.28,North,0,0.0,0.0,73,0.00,,,0.00,WUHU21623XXSP,2013-11-22 08:32:00,
2013-11-22 03:37:00,41.5,33.8,30.28,North,0,0.0,0.0,74,0.00,,,0.00,WUHU21623XXSP,2013-11-22 08:37:00,
2013-11-22 03:42:00,41.5,33.8,30.28,North,0,0.0,0.0,74,0.00,,,0.00,WUHU21623XXSP,2013-11-22 08:42:00,
2013-11-22 03:47:00,41.5,33.8,30.28,North,0,0.0,0.0,74,0.00,,,0.00,WUHU21623XXSP,2013-11-22 08:47:00,
2013-11-22 03:52:00,41.7,34.0,30.28,North,0,0.0,0.0,74,0.00,,,0.00,WUHU21623XXSP,2013-11-22 08:52:00,
2013-11-22 03:57:00,41.7,34.0,30.28,North,0,0.0,0.0,74,0.00,,,0.00,WUHU21623XXSP,2013-11-22 08:57:00,
2013-11-22 04:02:00,41.7,34.0,30.28,North,0,0.0,0.0,74,0.00,,,0.00,WUHU21623XXSP,2013-11-22 09:02:00,
2013-11-22 04:07:00,41.9,34.2,30.27,North,0,0.0,0.0,74,0.00,,,0.00,WUHU21623XXSP,2013-11-22 09:07:00,
2013-11-22 04:12:00,41.9,34.2,30.27,North,0,0.0,0.0,74,0.00,,,0.00,WUHU21623XXSP,2013-11-22 09:12:00,
2013-11-22 04:17:00,41.9,34.2,30.26,North,0,0.0,0.0,74,0.00,,,0.00,WUHU21623XXSP,2013-11-22 09:17:00,
2013-11-22 04:22:00,41.9,34.2,30.26,NNE,22,0.0,0.0,74,0.00,,,0.00,WUHU21623XXSP,2013-11-22 09:22:00,
2013-11-22 04:27:00,41.9,34.2,30.26,NNE,22,0.0,0.0,75,0.00,,,0.00,WUHU21623XXSP,2013-11-22 09:27:00,
2013-11-22 04:32:00,42.1,34.7,30.26,NNE,22,0.0,0.0,75,0.00,,,0.00,WUHU21623XXSP,2013-11-22 09:32:00,
2013-11-22 04:37:00,42.1,34.7,30.25,NNE,22,0.0,0.0,75,0.00,,,0.00,WUHU21623XXSP,2013-11-22 09:37:00,
2013-11-22 04:42:00,42.1,34.7,30.25,NNE,22,0.0,0.0,75,0.00,,,0.00,WUHU21623XXSP,2013-11-22 09:42:00,
2013-11-22 04:47:00,42.1,34.7,30.25,NNE,22,0.0,0.0,75,0.00,,,0.00,WUHU21623XXSP,2013-11-22 09:47:00,
2013-11-22 04:52:00,42.1,34.7,30.25,NNE,22,0.0,0.0,75,0.00,,,0.00,WUHU21623XXSP,2013-11-22 09:52:00,
2013-11-22 04:57:00,42.1,34.7,30.25,NNE,22,0.0,0.0,75,0.00,,,0.00,WUHU21623XXSP,2013-11-22 09:57:00,
2013-11-22 05:02:00,42.3,34.9,30.25,NNE,22,0.0,0.0,75,0.00,,,0.00,WUHU21623XXSP,2013-11-22 10:02:00,
2013-11-22 05:07:00,42.3,34.9,30.25,NNE,22,0.0,0.0,75,0.00,,,0.00,WUHU21623XXSP,2013-11-22 10:07:00,
2013-11-22 05:12:00,42.4,35.1,30.24,NNE,22,0.0,0.0,75,0.00,,,0.00,WUHU21623XXSP,2013-11-22 10:12:00,
2013-11-22 05:17:00,42.4,35.1,30.23,NE,45,0.0,0.0,75,0.00,,,0.00,WUHU21623XXSP,2013-11-22 10:17:00,
2013-11-22 05:22:00,42.3,35.1,30.23,NE,45,0.0,0.0,75,0.00,,,0.00,WUHU21623XXSP,2013-11-22 10:22:00,
2013-11-22 05:27:00,42.4,35.4,30.23,NE,45,0.0,0.0,76,0.00,,,0.00,WUHU21623XXSP,2013-11-22 10:27:00,
2013-11-22 05:32:00,42.4,35.4,30.23,NE,45,0.0,0.0,76,0.00,,,0.00,WUHU21623XXSP,2013-11-22 10:32:00,
2013-11-22 05:37:00,42.4,35.4,30.23,NE,45,0.0,0.0,76,0.00,,,0.00,WUHU21623XXSP,2013-11-22 10:37:00,
2013-11-22 05:42:00,42.4,35.4,30.23,NE,45,0.0,0.0,76,0.00,,,0.00,WUHU21623XXSP,2013-11-22 10:42:00,
2013-11-22 05:47:00,42.4,35.4,30.23,NE,45,0.0,0.0,76,0.00,,,0.00,WUHU21623XXSP,2013-11-22 10:47:00,
2013-11-22 05:52:00,42.4,35.4,30.23,NE,45,0.0,0.0,76,0.00,,,0.00,WUHU21623XXSP,2013-11-22 10:52:00,
2013-11-22 05:57:00,42.4,35.4,30.23,NE,45,0.0,0.0,76,0.00,,,0.00,WUHU21623XXSP,2013-11-22 10:57:00,
2013-11-22 06:02:00,42.4,35.4,30.22,NE,45,0.0,0.0,76,0.00,,,0.00,WUHU21623XXSP,2013-11-22 11:02:00,
2013-11-22 06:07:00,42.4,35.4,30.22,NE,45,0.0,0.0,76,0.00,,,0.00,WUHU21623XXSP,2013-11-22 11:07:00,
2013-11-22 06:12:00,42.4,35.4,30.23,NE,45,0.0,0.0,76,0.00,,,0.00,WUHU21623XXSP,2013-11-22 11:12:00,
2013-11-22 06:17:00,42.6,35.9,30.22,East,90,0.0,0.0,77,0.00,,,0.00,WUHU21623XXSP,2013-11-22 11:17:00,
2013-11-22 06:22:00,42.6,35.9,30.22,East,90,0.0,0.0,77,0.00,,,0.00,WUHU21623XXSP,2013-11-22 11:22:00,
2013-11-22 06:27:00,42.6,35.9,30.22,East,90,0.0,0.0,77,0.00,,,0.00,WUHU21623XXSP,2013-11-22 11:27:00,
2013-11-22 06:32:00,42.6,35.9,30.22,East,90,0.0,0.0,77,0.00,,,0.00,WUHU21623XXSP,2013-11-22 11:32:00,
2013-11-22 06:37:00,42.6,35.9,30.22,East,90,0.0,0.0,77,0.00,,,0.00,WUHU21623XXSP,2013-11-22 11:37:00,
2013-11-22 06:42:00,42.6,35.9,30.22,East,90,0.0,0.0,77,0.00,,,0.00,WUHU21623XXSP,2013-11-22 11:42:00,
2013-11-22 06:47:00,42.6,35.9,30.22,East,90,0.0,0.0,77,0.00,,,0.00,WUHU21623XXSP,2013-11-22 11:47:00,
2013-11-22 06:52:00,42.6,35.9,30.22,East,90,0.0,0.0,77,0.00,,,0.00,WUHU21623XXSP,2013-11-22 11:52:00,
2013-11-22 06:57:00,42.6,36.2,30.22,East,90,0.0,0.0,78,0.00,,,0.00,WUHU21623XXSP,2013-11-22 11:57:00,
2013-11-22 07:02:00,42.6,36.2,30.22,East,90,0.0,0.0,78,0.00,,,0.00,WUHU21623XXSP,2013-11-22 12:02:00,
2013-11-22 07:07:00,42.8,36.4,30.22,East,90,0.0,0.0,78,0.00,,,0.00,WUHU21623XXSP,2013-11-22 12:07:00,
2013-11-22 07:12:00,43.0,36.6,30.22,East,90,0.0,0.0,78,0.00,,,0.00,WUHU21623XXSP,2013-11-22 12:12:00,
2013-11-22 07:17:00,43.0,36.6,30.21,East,90,0.0,0.0,78,0.00,,,0.00,WUHU21623XXSP,2013-11-22 12:17:00,
2013-11-22 07:22:00,43.0,36.6,30.21,East,90,0.0,0.0,78,0.00,,,0.00,WUHU21623XXSP,2013-11-22 12:22:00,
2013-11-22 07:27:00,43.0,36.6,30.22,East,90,0.0,0.0,78,0.00,,,0.00,WUHU21623XXSP,2013-11-22 12:27:00,
2013-11-22 07:32:00,43.0,36.9,30.21,East,90,0.0,0.0,79,0.00,,,0.00,WUHU21623XXSP,2013-11-22 12:32:00,
2013-11-22 07:37:00,43.0,36.9,30.21,East,90,0.0,0.0,79,0.00,,,0.00,WUHU21623XXSP,2013-11-22 12:37:00,
2013-11-22 07:42:00,43.0,36.9,30.21,East,90,0.0,0.0,79,0.00,,,0.00,WUHU21623XXSP,2013-11-22 12:42:00,
2013-11-22 07:47:00,43.0,36.9,30.20,East,90,0.0,0.0,79,0.00,,,0.00,WUHU21623XXSP,2013-11-22 12:47:00,
2013-11-22 07:52:00,43.3,37.2,30.20,East,90,0.0,0.0,79,0.00,,,0.00,WUHU21623XXSP,2013-11-22 12:52:00,
2013-11-22 07:57:00,43.3,37.2,30.20,East,90,0.0,0.0,79,0.00,,,0.00,WUHU21623XXSP,2013-11-22 12:57:00,
2013-11-22 08:02:00,43.2,37.1,30.19,East,90,0.0,0.0,79,0.00,,,0.00,WUHU21623XXSP,2013-11-22 13:02:00,
2013-11-22 08:07:00,43.3,37.2,30.19,East,90,0.0,0.0,79,0.00,,,0.00,WUHU21623XXSP,2013-11-22 13:07:00,
2013-11-22 08:12:00,43.3,37.2,30.18,East,90,0.0,0.0,79,0.00,,,0.00,WUHU21623XXSP,2013-11-22 13:12:00,
2013-11-22 08:17:00,43.5,37.4,30.18,East,90,0.0,0.0,79,0.00,,,0.00,WUHU21623XXSP,2013-11-22 13:17:00,
2013-11-22 08:22:00,43.5,37.4,30.19,East,90,0.0,0.0,79,0.00,,,0.00,WUHU21623XXSP,2013-11-22 13:22:00,
2013-11-22 08:27:00,43.7,37.6,30.18,East,90,0.0,0.0,79,0.00,,,0.00,WUHU21623XXSP,2013-11-22 13:27:00,
2013-11-22 08:32:00,43.7,37.6,30.18,East,90,0.0,0.0,80,0.00,,,0.00,WUHU21623XXSP,2013-11-22 13:32:00,
2013-11-22 08:37:00,43.7,37.8,30.18,East,90,0.0,0.0,80,0.00,,,0.00,WUHU21623XXSP,2013-11-22 13:37:00,
2013-11-22 08:42:00,43.7,37.9,30.18,East,90,0.0,0.0,80,0.00,,,0.00,WUHU21623XXSP,2013-11-22 13:42:00,
2013-11-22 08:47:00,43.9,38.1,30.18,East,90,0.0,0.0,80,0.00,,,0.00,WUHU21623XXSP,2013-11-22 13:47:00,
2013-11-22 08:52:00,44.1,38.3,30.18,East,90,0.0,0.0,80,0.00,,,0.00,WUHU21623XXSP,2013-11-22 13:52:00,
2013-11-22 08:57:00,44.2,38.5,30.18,East,90,0.0,0.0,80,0.00,,,0.00,WUHU21623XXSP,2013-11-22 13:57:00,
2013-11-22 09:02:00,44.2,38.5,30.17,East,90,0.0,0.0,80,0.00,,,0.00,WUHU21623XXSP,2013-11-22 14:02:00,
2013-11-22 09:07:00,44.2,38.5,30.17,East,90,0.0,0.0,80,0.00,,,0.00,WUHU21623XXSP,2013-11-22 14:07:00,
2013-11-22 09:12:00,44.2,38.5,30.17,East,90,0.0,0.0,80,0.00,,,0.00,WUHU21623XXSP,2013-11-22 14:12:00,
2013-11-22 09:17:00,44.2,38.5,30.17,East,90,0.0,0.0,80,0.00,,,0.00,WUHU21623XXSP,2013-11-22 14:17:00,
2013-11-22 09:22:00,44.4,38.7,30.17,East,90,0.0,0.0,80,0.00,,,0.00,WUHU21623XXSP,2013-11-22 14:22:00,
2013-11-22 09:27:00,44.4,38.7,30.16,East,90,0.0,0.0,80,0.00,,,0.00,WUHU21623XXSP,2013-11-22 14:27:00,
2013-11-22 09:32:00,44.4,38.7,30.16,East,90,0.0,0.0,80,0.00,,,0.00,WUHU21623XXSP,2013-11-22 14:32:00,
2013-11-22 09:37:00,44.4,39.0,30.16,East,90,0.0,0.0,81,0.00,,,0.00,WUHU21623XXSP,2013-11-22 14:37:00,
2013-11-22 09:42:00,44.6,39.1,30.15,East,90,0.0,0.0,81,0.00,,,0.00,WUHU21623XXSP,2013-11-22 14:42:00,
2013-11-22 09:47:00,44.6,39.1,30.15,East,90,0.0,0.0,81,0.00,,,0.00,WUHU21623XXSP,2013-11-22 14:47:00,
2013-11-22 09:52:00,44.8,39.5,30.15,East,90,0.0,0.0,82,0.00,,,0.00,WUHU21623XXSP,2013-11-22 14:52:00,
2013-11-22 09:57:00,44.8,39.6,30.14,East,90,0.0,0.0,82,0.00,,,0.00,WUHU21623XXSP,2013-11-22 14:57:00,
2013-11-22 10:02:00,45.0,39.8,30.14,East,90,0.0,0.0,82,0.00,,,0.00,WUHU21623XXSP,2013-11-22 15:02:00,
2013-11-22 10:07:00,45.0,39.8,30.13,East,90,0.0,0.0,82,0.00,,,0.00,WUHU21623XXSP,2013-11-22 15:07:00,
2013-11-22 10:12:00,45.0,39.8,30.13,East,90,0.0,0.0,82,0.00,,,0.00,WUHU21623XXSP,2013-11-22 15:12:00,
2013-11-22 10:17:00,45.1,39.8,30.13,East,90,0.0,0.0,82,0.00,,,0.00,WUHU21623XXSP,2013-11-22 15:17:00,
2013-11-22 10:22:00,45.1,40.0,30.12,ESE,112,0.0,0.0,82,0.00,,,0.00,WUHU21623XXSP,2013-11-22 15:22:00,
2013-11-22 10:27:00,45.1,40.0,30.12,ESE,112,0.0,0.0,82,0.00,,,0.00,WUHU21623XXSP,2013-11-22 15:27:00,
2013-11-22 10:32:00,45.3,40.0,30.12,ESE,112,0.0,0.0,83,0.00,,,0.00,WUHU21623XXSP,2013-11-22 15:32:00,
2013-11-22 10:37:00,45.3,40.5,30.11,SE,135,0.0,0.0,83,0.00,,,0.00,WUHU21623XXSP,2013-11-22 15:37:00,
2013-11-22 10:42:00,45.5,40.5,30.10,SE,135,0.0,0.0,83,0.00,,,0.00,WUHU21623XXSP,2013-11-22 15:42:00,
2013-11-22 10:47:00,45.5,40.7,30.10,SE,135,0.0,0.0,83,0.00,,,0.00,WUHU21623XXSP,2013-11-22 15:47:00,
2013-11-22 10:52:00,45.7,41.1,30.09,SE,135,0.0,0.0,84,0.00,,,0.00,WUHU21623XXSP,2013-11-22 15:52:00,
2013-11-22 10:57:00,45.7,41.0,30.09,SE,135,0.0,0.0,83,0.00,,,0.00,WUHU21623XXSP,2013-11-22 15:57:00,
2013-11-22 11:02:00,45.7,41.1,30.10,SE,135,0.0,0.0,84,0.00,,,0.00,WUHU21623XXSP,2013-11-22 16:02:00,
2013-11-22 11:07:00,45.9,41.3,30.09,SE,135,0.0,0.0,84,0.00,,,0.00,WUHU21623XXSP,2013-11-22 16:07:00,
2013-11-22 11:12:00,46.0,41.5,30.08,SE,135,0.0,0.0,84,0.00,,,0.00,WUHU21623XXSP,2013-11-22 16:12:00,
2013-11-22 11:17:00,46.0,41.5,30.08,SE,135,0.0,0.0,84,0.00,,,0.00,WUHU21623XXSP,2013-11-22 16:17:00,
2013-11-22 11:22:00,46.0,41.5,30.07,SE,135,0.0,0.0,84,0.00,,,0.00,WUHU21623XXSP,2013-11-22 16:22:00,
2013-11-22 11:27:00,46.2,41.7,30.07,SE,135,0.0,0.0,84,0.00,,,0.00,WUHU21623XXSP,2013-11-22 16:27:00,
2013-11-22 11:32:00,46.2,41.7,30.07,SSE,157,0.0,0.0,84,0.00,,,0.00,WUHU21623XXSP,2013-11-22 16:32:00,
2013-11-22 11:37:00,46.2,41.7,30.06,SSE,157,0.0,0.0,84,0.00,,,0.00,WUHU21623XXSP,2013-11-22 16:37:00,
2013-11-22 11:42:00,46.2,41.7,30.06,SSE,157,0.0,0.0,85,0.00,,,0.00,WUHU21623XXSP,2013-11-22 16:42:00,
2013-11-22 11:47:00,46.2,42.0,30.06,SSE,157,0.0,0.0,85,0.00,,,0.00,WUHU21623XXSP,2013-11-22 16:47:00,
2013-11-22 11:52:00,46.2,42.0,30.05,SE,135,0.0,0.0,85,0.00,,,0.00,WUHU21623XXSP,2013-11-22 16:52:00,
2013-11-22 11:57:00,46.2,42.0,30.04,SE,135,0.0,0.0,85,0.00,,,0.00,WUHU21623XXSP,2013-11-22 16:57:00,
2013-11-22 12:02:00,46.2,42.0,30.04,SSE,157,0.0,0.0,85,0.00,,,0.00,WUHU21623XXSP,2013-11-22 17:02:00,
2013-11-22 12:07:00,46.2,42.0,30.03,SE,135,0.0,0.0,85,0.00,,,0.00,WUHU21623XXSP,2013-11-22 17:07:00,
2013-11-22 12:12:00,46.6,42.3,30.03,SSE,157,0.0,0.0,85,0.00,,,0.00,WUHU21623XXSP,2013-11-22 17:12:00,
2013-11-22 12:17:00,46.6,42.6,30.03,SSE,157,0.0,0.0,86,0.00,,,0.00,WUHU21623XXSP,2013-11-22 17:17:00,
2013-11-22 12:22:00,46.6,42.6,30.02,SE,135,0.0,0.0,86,0.00,,,0.00,WUHU21623XXSP,2013-11-22 17:22:00,
2013-11-22 12:27:00,46.6,42.6,30.02,SSE,157,0.0,0.0,86,0.00,,,0.00,WUHU21623XXSP,2013-11-22 17:27:00,
2013-11-22 12:32:00,46.8,42.8,30.02,SE,135,0.0,0.0,86,0.00,,,0.00,WUHU21623XXSP,2013-11-22 17:32:00,
2013-11-22 12:37:00,46.8,42.8,30.02,SW,225,0.0,0.0,86,0.00,,,0.00,WUHU21623XXSP,2013-11-22 17:37:00,
2013-11-22 12:42:00,46.9,42.8,30.01,SSE,157,0.0,0.0,86,0.00,,,0.00,WUHU21623XXSP,2013-11-22 17:42:00,
2013-11-22 12:47:00,46.9,43.0,30.00,SSE,157,0.0,0.0,86,0.00,,,0.00,WUHU21623XXSP,2013-11-22 17:47:00,
2013-11-22 12:52:00,47.1,43.2,29.99,East,90,0.0,0.0,86,0.00,,,0.00,WUHU21623XXSP,2013-11-22 17:52:00,
2013-11-22 12:57:00,47.1,43.2,29.99,SSE,157,0.0,0.0,86,0.00,,,0.00,WUHU21623XXSP,2013-11-22 17:57:00,
2013-11-22 13:02:00,47.1,43.2,29.99,SE,135,0.0,0.0,86,0.00,,,0.00,WUHU21623XXSP,2013-11-22 18:02:00,
2013-11-22 13:07:00,47.3,43.6,29.98,SSE,157,0.0,0.0,87,0.00,,,0.00,WUHU21623XXSP,2013-11-22 18:07:00,
2013-11-22 13:12:00,47.3,43.6,29.98,SE,135,0.0,0.0,87,0.00,,,0.00,WUHU21623XXSP,2013-11-22 18:12:00,
2013-11-22 13:17:00,47.5,43.6,29.98,SE,135,0.0,0.0,87,0.00,,,0.00,WUHU21623XXSP,2013-11-22 18:17:00,
2013-11-22 13:22:00,47.5,44.0,29.97,ESE,112,0.0,0.0,87,0.00,,,0.00,WUHU21623XXSP,2013-11-22 18:22:00,
2013-11-22 13:27:00,47.8,44.2,29.97,South,180,0.0,0.7,87,0.00,,,0.00,WUHU21623XXSP,2013-11-22 18:27:00,
2013-11-22 13:32:00,47.8,44.2,29.97,SE,135,0.0,0.7,87,0.00,,,0.00,WUHU21623XXSP,2013-11-22 18:32:00,
2013-11-22 13:37:00,48.0,44.7,29.96,SSE,157,0.0,0.0,88,0.00,,,0.00,WUHU21623XXSP,2013-11-22 18:37:00,
2013-11-22 13:42:00,48.0,44.7,29.95,SE,135,0.0,0.0,88,0.00,,,0.00,WUHU21623XXSP,2013-11-22 18:42:00,
2013-11-22 13:47:00,48.0,44.7,29.95,SSE,157,0.0,0.0,88,0.00,,,0.00,WUHU21623XXSP,2013-11-22 18:47:00,
2013-11-22 13:52:00,48.2,44.9,29.96,South,180,0.0,0.0,88,0.00,,,0.00,WUHU21623XXSP,2013-11-22 18:52:00,
2013-11-22 13:57:00,48.2,44.9,29.96,NE,45,0.0,0.0,88,0.00,,,0.00,WUHU21623XXSP,2013-11-22 18:57:00,
2013-11-22 14:02:00,48.4,45.0,29.95,NW,315,0.0,0.0,88,0.00,,,0.00,WUHU21623XXSP,2013-11-22 19:02:00,
2013-11-22 14:07:00,48.4,45.0,29.95,NE,45,0.0,0.0,88,0.00,,,0.00,WUHU21623XXSP,2013-11-22 19:07:00,
2013-11-22 14:12:00,48.6,45.2,29.96,WNW,292,0.0,0.0,88,0.00,,,0.00,WUHU21623XXSP,2013-11-22 19:12:00,
2013-11-22 14:17:00,48.6,45.2,29.95,WNW,292,0.0,0.0,88,0.00,,,0.00,WUHU21623XXSP,2013-11-22 19:17:00,
2013-11-22 14:22:00,48.7,45.3,29.95,NW,315,0.0,0.0,88,0.00,,,0.00,WUHU21623XXSP,2013-11-22 19:22:00,
2013-11-22 14:27:00,48.7,45.3,29.95,SE,135,0.0,0.0,88,0.00,,,0.00,WUHU21623XXSP,2013-11-22 19:27:00,
2013-11-22 14:32:00,48.7,45.3,29.95,NNE,22,0.0,0.0,88,0.00,,,0.00,WUHU21623XXSP,2013-11-22 19:32:00,
2013-11-22 14:37:00,48.9,45.5,29.95,ENE,67,0.0,0.0,88,0.00,,,0.00,WUHU21623XXSP,2013-11-22 19:37:00,
2013-11-22 14:42:00,48.9,45.8,29.94,ENE,67,0.0,0.0,89,0.00,,,0.00,WUHU21623XXSP,2013-11-22 19:42:00,
2013-11-22 14:47:00,48.9,45.8,29.94,ENE,67,0.0,0.0,89,0.00,,,0.00,WUHU21623XXSP,2013-11-22 19:47:00,
2013-11-22 14:52:00,49.1,46.0,29.94,NE,45,0.0,0.0,89,0.00,,,0.00,WUHU21623XXSP,2013-11-22 19:52:00,
2013-11-22 14:57:00,49.1,46.0,29.93,West,270,0.0,0.0,89,0.00,,,0.00,WUHU21623XXSP,2013-11-22 19:57:00,
2013-11-22 15:02:00,49.3,46.1,29.93,NNW,337,0.0,0.0,89,0.00,,,0.00,WUHU21623XXSP,2013-11-22 20:02:00,
2013-11-22 15:07:00,49.3,46.1,29.93,NNE,22,0.0,0.0,89,0.00,,,0.00,WUHU21623XXSP,2013-11-22 20:07:00,
2013-11-22 15:12:00,49.5,46.3,29.93,West,270,0.0,0.0,89,0.00,,,0.00,WUHU21623XXSP,2013-11-22 20:12:00,
2013-11-22 15:17:00,49.6,46.5,29.93,WNW,292,0.0,0.0,89,0.00,,,0.00,WUHU21623XXSP,2013-11-22 20:17:00,
2013-11-22 15:22:00,49.6,46.5,29.93,SW,225,0.0,0.0,89,0.00,,,0.00,WUHU21623XXSP,2013-11-22 20:22:00,
2013-11-22 15:27:00,49.6,46.5,29.94,NNW,337,0.0,0.0,89,0.00,,,0.00,WUHU21623XXSP,2013-11-22 20:27:00,
2013-11-22 15:32:00,49.6,46.5,29.94,West,270,0.0,0.0,89,0.00,,,0.00,WUHU21623XXSP,2013-11-22 20:32:00,
2013-11-22 15:37:00,49.8,46.6,29.93,NW,315,0.7,0.7,89,0.00,,,0.00,WUHU21623XXSP,2013-11-22 20:37:00,
2013-11-22 15:42:00,49.8,46.6,29.93,West,270,0.0,0.7,89,0.00,,,0.00,WUHU21623XXSP,2013-11-22 20:42:00,
2013-11-22 15:47:00,49.8,46.6,29.93,West,270,0.0,0.0,89,0.00,,,0.00,WUHU21623XXSP,2013-11-22 20:47:00,
2013-11-22 15:52:00,49.6,46.5,29.94,WNW,292,0.0,0.0,89,0.00,,,0.00,WUHU21623XXSP,2013-11-22 20:52:00,
2013-11-22 15:57:00,49.6,46.5,29.93,SW,225,0.0,0.0,89,0.00,,,0.00,WUHU21623XXSP,2013-11-22 20:57:00,
2013-11-22 16:02:00,49.6,46.5,29.93,NW,315,0.0,0.0,89,0.00,,,0.00,WUHU21623XXSP,2013-11-22 21:02:00,
2013-11-22 16:07:00,49.6,46.5,29.93,West,270,0.0,0.0,89,0.00,,,0.00,WUHU21623XXSP,2013-11-22 21:07:00,
2013-11-22 16:12:00,49.6,46.5,29.92,NNW,337,0.0,0.0,89,0.00,,,0.00,WUHU21623XXSP,2013-11-22 21:12:00,
2013-11-22 16:17:00,49.6,46.5,29.92,NW,315,0.0,0.0,89,0.00,,,0.00,WUHU21623XXSP,2013-11-22 21:17:00,
2013-11-22 16:22:00,49.6,46.5,29.92,NNW,337,0.0,1.6,89,0.00,,,0.00,WUHU21623XXSP,2013-11-22 21:22:00,
2013-11-22 16:27:00,49.6,46.5,29.92,North,0,0.0,1.6,89,0.00,,,0.00,WUHU21623XXSP,2013-11-22 21:27:00,
2013-11-22 16:32:00,49.5,46.6,29.91,WNW,292,0.0,0.0,90,0.00,,,0.00,WUHU21623XXSP,2013-11-22 21:32:00,
2013-11-22 16:37:00,49.3,46.3,29.91,North,0,0.0,0.0,90,0.00,,,0.00,WUHU21623XXSP,2013-11-22 21:37:00,
2013-11-22 16:42:00,49.3,46.5,29.92,NW,315,0.0,0.0,90,0.00,,,0.00,WUHU21623XXSP,2013-11-22 21:42:00,
2013-11-22 16:47:00,49.3,46.5,29.92,NNW,337,0.0,0.0,90,0.00,,,0.00,WUHU21623XXSP,2013-11-22 21:47:00,
2013-11-22 16:52:00,49.3,46.5,29.92,NW,315,0.0,0.0,90,0.00,,,0.00,WUHU21623XXSP,2013-11-22 21:52:00,
2013-11-22 16:57:00,49.1,46.3,29.93,WNW,292,0.0,0.0,90,0.00,,,0.00,WUHU21623XXSP,2013-11-22 21:57:00,
2013-11-22 17:02:00,49.1,46.3,29.92,NW,315,0.0,0.0,90,0.00,,,0.00,WUHU21623XXSP,2013-11-22 22:02:00,
2013-11-22 17:07:00,49.1,46.3,29.92,NW,315,0.0,0.0,90,0.00,,,0.00,WUHU21623XXSP,2013-11-22 22:07:00,
2013-11-22 17:12:00,49.1,46.3,29.93,NW,315,1.8,1.8,90,0.00,,,0.00,WUHU21623XXSP,2013-11-22 22:12:00,
2013-11-22 17:17:00,48.9,46.1,29.93,NW,315,0.0,1.8,90,0.00,,,0.00,WUHU21623XXSP,2013-11-22 22:17:00,
2013-11-22 17:22:00,48.9,46.1,29.92,NNW,337,0.0,0.0,90,0.00,,,0.00,WUHU21623XXSP,2013-11-22 22:22:00,
2013-11-22 17:27:00,48.9,46.1,29.91,NNE,22,0.0,1.3,89,0.00,,,0.00,WUHU21623XXSP,2013-11-22 22:27:00,
2013-11-22 17:32:00,48.7,45.8,29.92,NNW,337,0.0,1.3,89,0.00,,,0.00,WUHU21623XXSP,2013-11-22 22:32:00,
2013-11-22 17:37:00,48.7,45.7,29.91,NE,45,0.0,0.0,89,0.00,,,0.00,WUHU21623XXSP,2013-11-22 22:37:00,
2013-11-22 17:42:00,48.7,45.7,29.91,NNW,337,1.6,1.6,89,0.00,,,0.00,WUHU21623XXSP,2013-11-22 22:42:00,
2013-11-22 17:47:00,48.7,45.5,29.91,NNW,337,0.0,1.6,89,0.00,,,0.00,WUHU21623XXSP,2013-11-22 22:47:00,
2013-11-22 17:52:00,48.7,45.7,29.91,NNW,337,0.0,1.6,89,0.00,,,0.00,WUHU21623XXSP,2013-11-22 22:52:00,
2013-11-22 17:57:00,48.7,45.7,29.90,NNW,337,0.0,0.0,89,0.00,,,0.00,WUHU21623XXSP,2013-11-22 22:57:00,
2013-11-22 18:02:00,48.6,45.5,29.90,NNW,337,0.0,0.0,89,0.00,,,0.00,WUHU21623XXSP,2013-11-22 23:02:00,
2013-11-22 18:07:00,48.6,45.5,29.89,NNW,337,0.0,0.0,89,0.00,,,0.00,WUHU21623XXSP,2013-11-22 23:07:00,
2013-11-22 18:12:00,48.6,45.5,29.89,NNW,337,0.0,0.0,89,0.00,,,0.00,WUHU21623XXSP,2013-11-22 23:12:00,
2013-11-22 18:17:00,48.6,45.5,29.90,NW,315,0.0,0.0,89,0.00,,,0.00,WUHU21623XXSP,2013-11-22 23:17:00,
2013-11-22 18:22:00,48.7,45.5,29.90,WNW,292,0.0,0.0,89,0.00,,,0.00,WUHU21623XXSP,2013-11-22 23:22:00,
2013-11-22 18:27:00,48.6,45.5,29.90,WNW,292,0.0,0.0,89,0.00,,,0.00,WUHU21623XXSP,2013-11-22 23:27:00,
2013-11-22 18:32:00,48.6,45.5,29.91,WNW,292,0.0,0.0,89,0.00,,,0.00,WUHU21623XXSP,2013-11-22 23:32:00,
2013-11-22 18:37:00,48.6,45.5,29.91,WNW,292,0.0,0.0,89,0.00,,,0.00,WUHU21623XXSP,2013-11-22 23:37:00,
2013-11-22 18:42:00,48.6,45.5,29.90,WSW,247,0.0,0.0,89,0.00,,,0.00,WUHU21623XXSP,2013-11-22 23:42:00,
2013-11-22 18:47:00,48.6,45.3,29.89,WSW,247,0.0,0.0,89,0.00,,,0.00,WUHU21623XXSP,2013-11-22 23:47:00,
2013-11-22 18:52:00,48.4,45.5,29.89,WSW,247,0.0,0.0,89,0.00,,,0.00,WUHU21623XXSP,2013-11-22 23:52:00,
2013-11-22 18:57:00,48.4,45.0,29.89,WSW,247,0.0,0.0,88,0.00,,,0.00,WUHU21623XXSP,2013-11-22 23:57:00,
2013-11-22 19:02:00,48.4,45.0,29.90,WSW,247,0.0,0.0,88,0.00,,,0.00,WUHU21623XXSP,2013-11-23 00:02:00,
2013-11-22 19:07:00,48.4,45.0,29.89,WSW,247,0.0,0.0,88,0.00,,,0.00,WUHU21623XXSP,2013-11-23 00:07:00,
2013-11-22 19:12:00,48.4,45.0,29.89,WSW,247,0.0,0.0,88,0.00,,,0.00,WUHU21623XXSP,2013-11-23 00:12:00,
2013-11-22 19:17:00,48.4,45.0,29.89,WSW,247,0.0,0.0,88,0.00,,,0.00,WUHU21623XXSP,2013-11-23 00:17:00,
2013-11-22 19:22:00,48.4,45.0,29.88,WSW,247,0.0,0.0,88,0.00,,,0.00,WUHU21623XXSP,2013-11-23 00:22:00,
2013-11-22 19:27:00,48.2,44.9,29.88,WSW,247,0.0,0.0,88,0.00,,,0.00,WUHU21623XXSP,2013-11-23 00:27:00,
2013-11-22 19:32:00,48.2,44.9,29.88,WSW,247,0.0,0.0,88,0.00,,,0.00,WUHU21623XXSP,2013-11-23 00:32:00,
2013-11-22 19:37:00,48.2,44.9,29.89,WSW,247,0.0,0.0,88,0.00,,,0.00,WUHU21623XXSP,2013-11-23 00:37:00,
2013-11-22 19:42:00,48.2,44.9,29.89,WSW,247,0.0,0.0,88,0.00,,,0.00,WUHU21623XXSP,2013-11-23 00:42:00,
2013-11-22 19:47:00,48.2,44.9,29.89,WSW,247,0.0,0.0,88,0.00,,,0.00,WUHU21623XXSP,2013-11-23 00:47:00,
2013-11-22 19:52:00,48.0,44.7,29.88,WSW,247,0.0,0.0,88,0.00,,,0.00,WUHU21623XXSP,2013-11-23 00:52:00,
2013-11-22 19:57:00,48.0,44.7,29.88,WSW,247,0.0,0.0,88,0.00,,,0.00,WUHU21623XXSP,2013-11-23 00:57:00,
2013-11-22 20:02:00,48.0,44.7,29.88,WSW,247,0.0,0.0,88,0.00,,,0.00,WUHU21623XXSP,2013-11-23 01:02:00,
2013-11-22 20:07:00,48.0,44.7,29.88,WSW,247,0.0,0.0,88,0.00,,,0.00,WUHU21623XXSP,2013-11-23 01:07:00,
2013-11-22 20:12:00,48.0,44.7,29.87,WSW,247,0.0,0.0,88,0.00,,,0.00,WUHU21623XXSP,2013-11-23 01:12:00,
2013-11-22 20:17:00,48.0,44.7,29.88,WSW,247,0.0,0.0,88,0.00,,,0.00,WUHU21623XXSP,2013-11-23 01:17:00,
2013-11-22 20:22:00,48.0,44.7,29.87,WSW,247,0.0,0.0,88,0.00,,,0.00,WUHU21623XXSP,2013-11-23 01:22:00,
2013-11-22 20:27:00,48.0,44.7,29.87,WSW,247,0.0,0.0,88,0.00,,,0.00,WUHU21623XXSP,2013-11-23 01:27:00,
2013-11-22 20:32:00,48.0,44.7,29.87,WSW,247,0.0,0.0,88,0.00,,,0.00,WUHU21623XXSP,2013-11-23 01:32:00,
2013-11-22 20:37:00,48.0,44.7,29.86,WSW,247,0.0,0.0,88,0.00,,,0.00,WUHU21623XXSP,2013-11-23 01:37:00,
2013-11-22 20:42:00,48.0,44.7,29.86,WSW,247,0.0,0.0,88,0.00,,,0.00,WUHU21623XXSP,2013-11-23 01:42:00,
2013-11-22 20:47:00,48.0,44.7,29.86,WSW,247,0.0,0.0,88,0.00,,,0.00,WUHU21623XXSP,2013-11-23 01:47:00,
2013-11-22 20:52:00,48.0,44.7,29.86,WSW,247,0.0,0.0,88,0.00,,,0.00,WUHU21623XXSP,2013-11-23 01:52:00,
2013-11-22 20:57:00,48.0,44.7,29.86,WSW,247,0.0,0.0,88,0.00,,,0.00,WUHU21623XXSP,2013-11-23 01:57:00,
2013-11-22 21:02:00,48.0,44.7,29.86,WSW,247,0.0,0.0,88,0.00,,,0.00,WUHU21623XXSP,2013-11-23 02:02:00,
2013-11-22 21:07:00,48.0,44.7,29.86,WSW,247,0.0,0.0,88,0.00,,,0.00,WUHU21623XXSP,2013-11-23 02:07:00,
2013-11-22 21:12:00,48.0,44.7,29.85,South,180,0.0,0.0,88,0.00,,,0.00,WUHU21623XXSP,2013-11-23 02:12:00,
2013-11-22 21:17:00,48.0,44.7,29.85,South,180,0.0,0.0,88,0.00,,,0.00,WUHU21623XXSP,2013-11-23 02:17:00,
2013-11-22 21:22:00,48.0,44.7,29.85,South,180,0.0,0.0,88,0.00,,,0.00,WUHU21623XXSP,2013-11-23 02:22:00,
2013-11-22 21:27:00,47.8,44.5,29.85,South,180,0.0,0.0,88,0.00,,,0.00,WUHU21623XXSP,2013-11-23 02:27:00,
2013-11-22 21:32:00,47.8,44.5,29.84,South,180,0.0,0.0,88,0.00,,,0.00,WUHU21623XXSP,2013-11-23 02:32:00,
2013-11-22 21:37:00,47.8,44.5,29.84,SSE,157,0.0,0.0,88,0.00,,,0.00,WUHU21623XXSP,2013-11-23 02:37:00,
2013-11-22 21:42:00,47.8,44.5,29.84,SSE,157,0.0,0.0,88,0.00,,,0.00,WUHU21623XXSP,2013-11-23 02:42:00,
2013-11-22 21:47:00,47.8,44.5,29.84,SSE,157,0.0,0.0,88,0.00,,,0.00,WUHU21623XXSP,2013-11-23 02:47:00,
2013-11-22 21:52:00,47.8,44.5,29.84,NNW,337,0.0,0.0,88,0.00,,,0.00,WUHU21623XXSP,2013-11-23 02:52:00,
2013-11-22 21:57:00,47.7,44.3,29.84,SW,225,0.0,0.0,88,0.00,,,0.00,WUHU21623XXSP,2013-11-23 02:57:00,
2013-11-22 22:02:00,47.7,44.3,29.83,SSE,157,0.0,0.0,88,0.00,,,0.00,WUHU21623XXSP,2013-11-23 03:02:00,
2013-11-22 22:07:00,47.5,44.1,29.82,SSE,157,0.0,0.0,88,0.00,,,0.00,WUHU21623XXSP,2013-11-23 03:07:00,
2013-11-22 22:12:00,47.7,44.3,29.83,SSE,157,0.0,0.0,88,0.00,,,0.00,WUHU21623XXSP,2013-11-23 03:12:00,
2013-11-22 22:17:00,47.7,44.3,29.82,SSE,157,0.0,0.0,88,0.00,,,0.00,WUHU21623XXSP,2013-11-23 03:17:00,
2013-11-22 22:22:00,47.7,44.3,29.82,SSW,202,0.0,0.0,88,0.00,,,0.00,WUHU21623XXSP,2013-11-23 03:22:00,
2013-11-22 22:27:00,47.7,44.3,29.82,SSW,202,0.0,0.0,88,0.00,,,0.00,WUHU21623XXSP,2013-11-23 03:27:00,
2013-11-22 22:32:00,47.5,44.1,29.82,SSW,202,0.0,0.0,88,0.00,,,0.00,WUHU21623XXSP,2013-11-23 03:32:00,
2013-11-22 22:37:00,47.5,44.1,29.81,SSE,157,0.0,0.0,88,0.00,,,0.00,WUHU21623XXSP,2013-11-23 03:37:00,
2013-11-22 22:42:00,47.5,44.5,29.82,SSE,157,0.0,0.0,89,0.00,,,0.00,WUHU21623XXSP,2013-11-23 03:42:00,
2013-11-22 22:47:00,47.5,44.5,29.82,WSW,247,0.9,0.9,89,0.00,,,0.00,WUHU21623XXSP,2013-11-23 03:47:00,
2013-11-22 22:52:00,47.5,44.5,29.81,West,270,0.0,0.9,89,0.00,,,0.00,WUHU21623XXSP,2013-11-23 03:52:00,
2013-11-22 22:57:00,47.5,44.5,29.81,North,0,0.0,0.0,89,0.00,,,0.00,WUHU21623XXSP,2013-11-23 03:57:00,
2013-11-22 23:02:00,47.5,44.5,29.81,West,270,0.0,0.0,89,0.00,,,0.00,WUHU21623XXSP,2013-11-23 04:02:00,
2013-11-22 23:07:00,47.5,44.5,29.81,West,270,0.0,0.0,89,0.00,,,0.00,WUHU21623XXSP,2013-11-23 04:07:00,
2013-11-22 23:12:00,47.5,44.5,29.80,SSE,157,0.0,0.0,89,0.00,,,0.00,WUHU21623XXSP,2013-11-23 04:12:00,
2013-11-22 23:17:00,47.5,44.5,29.80,SSE,157,0.0,0.0,89,0.00,,,0.00,WUHU21623XXSP,2013-11-23 04:17:00,
2013-11-22 23:22:00,47.5,44.5,29.80,West,270,0.0,0.0,89,0.00,,,0.00,WUHU21623XXSP,2013-11-23 04:22:00,
2013-11-22 23:27:00,47.5,44.5,29.79,SSW,202,0.0,0.0,89,0.00,,,0.00,WUHU21623XXSP,2013-11-23 04:27:00,
2013-11-22 23:32:00,47.5,44.5,29.80,SW,225,0.0,0.0,89,0.00,,,0.00,WUHU21623XXSP,2013-11-23 04:32:00,
2013-11-22 23:37:00,47.5,44.5,29.79,SW,225,0.0,0.0,89,0.00,,,0.00,WUHU21623XXSP,2013-11-23 04:37:00,
2013-11-22 23:42:00,47.5,44.5,29.79,WSW,247,0.0,0.0,89,0.00,,,0.00,WUHU21623XXSP,2013-11-23 04:42:00,
2013-11-22 23:47:00,47.5,44.5,29.78,WSW,247,0.0,0.0,89,0.00,,,0.00,WUHU21623XXSP,2013-11-23 04:47:00,
2013-11-22 23:52:00,47.5,44.5,29.79,SW,225,0.0,0.0,89,0.00,,,0.00,WUHU21623XXSP,2013-11-23 04:52:00,
2013-11-22 23:57:00,47.7,44.6,29.78,WSW,247,0.0,0.0,89,0.00,,,0.00,WUHU21623XXSP,2013-11-23 04:57:00,